This is the latest recevied weather packets stored in our database for station/object NR6G-12. If no packets are shown the sender has not sent any weather packets the latest 10 day(s).
| Time | Temp. | Humidity | Pressure | Rain* | Wind** | Luminosity | Snow |
|---|---|---|---|---|---|---|---|
| 1777109579 | 8.89° C | 60% | 1009.6 hPa | 0 mm | - | - | - |
| 1777109219 | 8.89° C | 60% | 1009.5 hPa | 0 mm | - | - | - |
| 1777108859 | 8.89° C | 60% | 1009.5 hPa | 0 mm | - | - | - |
| 1777108499 | 8.89° C | 61% | 1009.6 hPa | 0 mm | - | - | - |
| 1777107779 | 8.89° C | 60% | 1009.9 hPa | 0 mm | - | - | - |
| 1777107418 | 8.89° C | 60% | 1010 hPa | 0 mm | - | - | - |
| 1777107059 | 8.89° C | 59% | 1010.1 hPa | 0 mm | - | - | - |
| 1777106339 | 9.44° C | 59% | 1010.1 hPa | 0 mm | - | - | - |
| 1777105979 | 9.44° C | 57% | 1010.1 hPa | 0 mm | - | - | - |
| 1777105619 | 9.44° C | 56% | 1010.2 hPa | 0 mm | - | - | - |
| 1777105258 | 9.44° C | 57% | 1010.2 hPa | 0 mm | - | - | - |
| 1777104898 | 9.44° C | 57% | 1010.3 hPa | 0 mm | - | - | - |
| 1777104179 | 9.44° C | 55% | 1010.4 hPa | 0 mm | - | - | - |
| 1777103819 | 9.44° C | 54% | 1010.6 hPa | 0 mm | - | - | - |
| 1777103459 | 9.44° C | 53% | 1010.6 hPa | 0 mm | - | - | - |
| 1777102739 | 9.44° C | 55% | 1010.6 hPa | 0 mm | - | - | - |
| 1777102019 | 9.44° C | 52% | 1010.7 hPa | 0 mm | - | - | - |
| 1777101659 | 9.44° C | 56% | 1010.8 hPa | 0 mm | - | - | - |
| 1777101299 | 9.44° C | 58% | 1010.8 hPa | 0 mm | - | - | - |
| 1777100939 | 9.44° C | 58% | 1010.8 hPa | 0 mm | - | - | - |
| 1777100219 | 9.44° C | 59% | 1010.9 hPa | 0 mm | - | - | - |
| 1777099498 | 8.89° C | 66% | 1010.9 hPa | 0 mm | - | - | - |
| 1777097398 | 8.89° C | 70% | 1011 hPa | 0 mm | - | - | - |
| 1777096318 | 8.89° C | 71% | 1011.1 hPa | 0 mm | - | - | - |
| 1777095958 | 8.89° C | 70% | 1011 hPa | 0 mm | - | - | - |
* Rain latest hour (hover to see other rain measurements)
** Current wind speed in m/s (hover to see current wind gust speed)